Tracking 31027 objects as of 19-Jul-2025
HD Live streaming from Space Station
objects crossing your sky now

STARLINK-5622

Track STARLINK-5622 now!
10-day predictions
STARLINK-5622 is classified as:


NORAD ID: 55358
Int'l Code: 2023-013AD
Perigee: 565.5 km
Apogee: 566.9 km
Inclination: 43.0 °
Period: 95.8 minutes
Semi major axis: 6937 km
RCS: Unknown
Launch date: January 26, 2023
Source: United States (US)
Launch site: AIR FORCE EASTERN TEST RANGE (AFETR)
Your satellite tracking list
IRIDIUM 106
Track 1 satellite(s)




NASA's NSSDC Master Catalog

Two Line Element Set (TLE):
1 55358U 23013AD  25199.49556041  .00000174  00000-0  27942-4 0  9995
2 55358  43.0030 132.6080 0000969 270.3701  89.7031 15.02540709136485
Source of the keplerian elements: AFSPC